Regional Weather Roundup
Issued by NWS Goodland, KS

Home | Current Version | Previous Version | Graphics & Text | Print | Product List | Glossary On
Versions: 1 2 3 4 5 6 7 8 9 10 11 12 13 14 15 16 17 18 19 20 21 22 23 24 25 26 27 28 29 30 31 32 33 34 35 36 37 38 39 40 41 42 43 44 45 46 47 48 49 50
000
ASUS43 KGLD 291259
RWRGLD

GOODLAND FORECAST AREA HOURLY WEATHER ROUNDUP
NATIONAL WEATHER SERVICE GOODLAND KS
700 AM MDT FRI APR 29 2016

...OFFICIAL OBSERVATIONS...

CITY           SKY/WX    TMP DP  RH WIND       PRES   REMARKS
GOODLAND KS    LGT RAIN  39  38  96 NE13      29.98F
HILL CITY KS   CLOUDY    44  42  93 NE16      30.02R
IMPERIAL NEB   CLOUDY    41  38  89 NE8       30.04S
MCCOOK NEB     CLOUDY    43  40  89 NE9       30.03S
AKRON CO       CLOUDY    35  33  92 E10       29.98F
BURLINGTON CO  CLOUDY    38  35  89 NE15      29.97S
LIMON CO       SNOW      32  31  96 NE6       29.96F VSB 1/2
$$

...UNOFFICIAL OBSERVATIONS...

CITY           SKY/WX    TMP DP  RH WIND       PRES   REMARKS
COLBY KS       LGT RAIN  43  43 100 NE10      30.02R
GOVE KS          N/A     44  32  63 MISG        N/A
LENORA KS        N/A     42  32  68 MISG        N/A
NORTON KS      CLOUDY    41  36  81 NE13      30.00F
SHARON SPRINGS   N/A     40  39  95 NE13G20     N/A
KIT CARSON CO    N/A     36  33  90 MISG        N/A
YUMA CO          N/A     37  35  94 E6          N/A
$$




USA.gov is the U.S. government's official web portal to all federal, state and local government web resources and services.